Date,TemperatureHighF,TemperatureAvgF,TemperatureLowF,DewpointHighF,DewpointAvgF,DewpointLowF,HumidityHigh,HumidityAvg,HumidityLow,PressureMaxIn,PressureMinIn,WindSpeedMaxMPH,WindSpeedAvgMPH,GustSpeedMaxMPH,PrecipitationSumIn
2013-1-1,36,33,30,33,27,21,96,77,59,29.32,29.06,23,9,32,0.12
2013-1-2,34,31,30,30,28,25,96,90,76,29.38,29.17,17,5,24,0.00
2013-1-3,33,31,30,31,30,27,97,95,89,29.48,29.31,9,1,12,0.02
2013-1-4,32,30,27,29,26,24,97,88,81,29.71,29.48,6,1,12,0.01
2013-1-5,35,33,31,31,29,25,89,83,72,29.58,29.12,12,4,20,0.09
2013-1-6,35,32,29,29,26,21,95,81,58,29.22,28.86,17,5,24,0.00
2013-1-7,32,30,28,29,27,24,96,87,74,29.27,28.86,12,5,19,0.00
2013-1-8,28,24,22,25,21,16,93,86,76,29.93,29.27,9,3,17,0.00
2013-1-9,30,24,17,28,20,15,95,84,61,29.99,29.80,8,4,10,0.00
2013-1-10,33,28,25,29,25,23,96,91,77,30.04,29.80,13,3,22,0.00
2013-1-11,34,31,28,31,29,26,97,91,75,30.01,29.72,18,3,24,0.00
2013-1-12,40,37,32,35,32,28,95,82,70,30.00,29.69,11,4,18,0.56
2013-1-13,41,39,36,37,35,33,95,86,76,29.78,29.51,10,6,17,0.74
2013-1-14,40,35,24,36,30,19,91,84,69,29.94,29.42,17,8,24,0.46
2013-1-15,30,25,23,21,18,3,85,75,33,30.15,29.94,10,4,17,0.00
2013-1-16,32,27,20,28,23,18,95,88,65,30.10,29.58,5,2,9,0.00
2013-1-17,20,15,12,18,13,10,93,90,86,29.86,29.52,8,3,10,0.00
2013-1-18,22,16,12,17,12,8,89,84,76,30.05,29.86,6,2,8,0.00
2013-1-19,36,31,22,31,25,17,92,80,72,30.05,29.67,25,8,36,0.00
2013-1-20,39,36,30,31,30,27,95,79,66,29.75,29.67,15,4,24,0.02
2013-1-21,42,38,31,33,30,26,83,73,63,29.76,29.46,26,6,39,0.00
2013-1-22,41,38,37,32,30,29,76,73,70,29.48,29.26,9,5,17,0.00
2013-1-23,39,37,35,30,29,27,78,72,68,29.27,29.12,10,5,15,0.00
2013-1-24,38,33,28,30,28,26,95,81,67,29.42,29.19,9,3,13,0.00
2013-1-25,31,20,5,30,13,-7,96,76,48,29.53,29.30,18,8,27,0.00
2013-1-26,6,3,-2,-6,-10,-14,69,55,40,29.82,29.53,11,5,26,0.00
2013-1-27,2,-2,-6,-6,-13,-18,74,59,48,30.06,29.82,12,7,17,0.00
2013-1-28,19,4,-6,14,-5,-18,87,66,47,30.06,29.61,17,7,28,0.00
2013-1-29,30,24,18,25,19,13,89,82,77,29.66,29.55,10,5,18,0.00
2013-1-30,41,35,30,33,30,25,93,81,66,29.66,29.51,23,7,33,0.07
2013-1-31,35,31,25,34,30,23,97,95,89,29.81,29.59,5,2,14,0.02
2013-2-1,39,36,27,32,30,26,95,77,68,29.81,29.50,10,4,18,0.01
2013-2-2,39,37,36,31,30,30,79,76,72,29.51,29.16,12,5,24,0.00
2013-2-3,41,36,31,31,28,26,82,76,65,29.35,29.09,14,3,24,0.00
2013-2-4,37,34,32,30,28,25,90,77,64,29.54,29.35,9,3,24,0.00
2013-2-5,40,32,28,29,25,22,85,75,61,29.54,29.40,9,3,13,0.00
2013-2-6,28,23,20,26,21,17,95,90,81,29.54,29.38,10,3,19,0.00
2013-2-7,35,28,21,29,24,18,94,83,68,29.49,29.14,12,4,21,0.00
2013-2-8,34,31,27,29,28,26,96,88,77,29.62,29.31,9,2,18,0.00
2013-2-9,39,35,31,32,30,27,93,83,73,29.52,28.81,18,7,28,0.13
2013-2-10,37,30,24,32,28,19,95,90,76,29.46,28.81,20,6,33,0.03
2013-2-11,28,22,16,21,11,-9,86,67,22,29.64,29.46,18,5,22,0.00
2013-2-12,33,29,25,26,24,21,94,81,73,29.64,29.55,7,4,16,0.00
2013-2-13,35,29,23,28,25,22,95,86,70,29.70,29.44,19,4,26,0.00
2013-2-14,37,31,26,30,26,23,96,84,68,29.45,29.04,19,5,26,0.00
2013-2-15,27,21,15,26,18,10,95,87,76,29.91,29.43,13,6,22,0.00
2013-2-16,29,21,15,23,12,4,84,71,45,29.95,29.54,10,3,18,0.00
2013-2-17,30,24,18,23,19,14,90,83,71,29.67,29.43,9,4,13,0.00
2013-2-18,20,16,10,15,2,-4,79,55,41,29.79,29.66,13,6,19,0.00
2013-2-19,30,22,10,24,14,2,84,72,52,29.72,29.04,11,4,20,0.00
2013-2-20,34,27,23,27,22,20,95,83,71,29.16,28.88,14,4,20,0.00
2013-2-21,26,23,19,23,22,17,95,93,89,29.16,29.03,5,1,18,0.00
2013-2-22,20,18,15,17,14,11,93,84,72,29.32,29.16,12,6,18,0.00
2013-2-23,30,30,30,24,24,24,80,80,80,29.02,29.02,5,5,5,0.00
2013-2-24,32,30,27,29,25,22,93,84,72,29.51,29.21,5,3,11,0.00
2013-2-25,34,32,29,27,25,21,84,75,67,29.52,29.33,15,4,21,0.00
2013-2-26,38,33,30,27,25,23,83,71,62,29.34,29.10,12,5,22,0.02
2013-2-27,37,31,27,28,26,20,93,81,68,29.16,29.00,16,5,22,0.00
2013-2-28,33,29,26,28,26,24,96,88,78,29.33,29.16,12,3,19,0.00
2013-3-1,30,27,24,27,24,20,95,92,84,29.85,29.33,7,2,9,0.00
2013-3-2,36,29,22,26,22,18,89,76,61,29.91,29.85,9,4,18,0.01
2013-3-3,37,35,32,29,27,25,80,73,63,30.25,29.90,19,9,27,0.01
2013-3-4,39,36,32,30,28,26,82,73,67,30.32,30.21,11,5,22,0.00
2013-3-5,39,32,28,28,26,24,89,76,58,30.21,29.87,8,4,18,0.00
2013-3-6,42,36,31,30,28,25,85,73,59,29.88,29.67,8,3,14,0.00
2013-3-7,39,34,31,30,28,25,94,79,63,29.67,29.31,25,12,36,0.00
2013-3-8,38,34,29,28,26,21,94,74,54,29.64,29.39,21,8,32,0.00
2013-3-9,39,32,27,29,27,24,95,84,62,30.05,29.64,9,2,32,0.00
2013-3-10,33,27,24,28,23,19,93,86,79,30.13,29.98,14,5,18,0.00
2013-3-11,32,27,25,24,20,14,91,75,58,30.22,30.13,11,6,15,0.00
2013-3-12,28,23,18,13,6,0,62,50,35,30.15,29.89,11,6,19,0.01
2013-3-13,25,19,14,11,3,-2,74,49,39,29.90,29.66,9,4,13,0.00
2013-3-14,26,18,12,18,12,8,85,77,64,29.72,29.61,13,4,17,0.00
2013-3-15,35,28,24,17,11,4,74,49,32,29.71,29.61,9,3,12,0.00
2013-3-16,35,27,22,20,10,1,81,49,34,30.01,29.71,6,2,8,0.00
2013-3-17,28,23,16,18,7,-2,78,51,35,30.05,29.97,9,4,11,0.00
2013-3-18,24,21,17,8,6,4,62,52,42,29.96,29.80,11,5,14,0.00
2013-3-19,22,17,10,10,2,-4,81,52,32,29.84,29.79,12,7,21,0.00
2013-3-20,23,15,9,10,2,-3,72,56,40,29.90,29.81,12,6,15,0.00
2013-3-21,27,20,12,12,6,2,68,57,41,30.11,29.90,12,4,16,0.00
2013-3-22,32,29,24,29,23,10,94,79,55,30.04,29.76,14,5,20,0.01
2013-3-23,33,28,25,25,23,19,90,81,66,29.76,29.70,6,3,16,0.01
2013-3-24,27,23,18,22,20,15,93,87,79,29.71,29.51,7,2,10,0.00
2013-3-25,20,12,3,18,8,0,93,83,76,29.64,29.40,18,8,24,0.00
2013-3-26,17,10,4,13,5,-1,89,82,70,30.08,29.65,8,3,9,0.00
2013-3-27,27,17,8,16,10,4,89,74,50,30.12,30.04,5,2,13,0.00
2013-3-28,35,29,24,28,23,16,92,78,67,30.04,29.68,11,5,22,0.00
2013-3-29,40,35,30,31,28,26,96,79,63,29.86,29.67,11,3,21,0.04
2013-3-30,40,33,29,32,29,26,96,86,65,30.13,29.87,5,2,15,0.04
2013-3-31,41,33,29,30,27,25,94,79,58,30.15,30.03,9,2,13,0.01
2013-4-1,37,31,26,30,24,18,94,76,53,30.03,29.88,8,3,11,0.01
2013-4-2,40,32,26,24,20,17,73,60,44,30.07,29.94,7,3,9,0.00
2013-4-3,38,33,28,25,22,20,74,64,52,30.13,30.07,12,4,19,0.00
2013-4-4,38,32,27,22,18,9,71,57,43,30.10,29.66,11,5,14,0.00
2013-4-5,37,29,25,24,15,8,86,57,43,29.66,29.40,9,4,13,0.00
2013-4-6,31,26,19,25,21,10,93,81,57,29.47,29.33,11,4,16,0.01
2013-4-7,18,14,11,11,8,6,83,74,65,29.70,29.47,15,7,24,0.00
2013-4-8,20,14,8,9,6,3,81,72,57,29.70,29.23,12,6,16,0.00
2013-4-9,17,12,8,11,7,4,88,80,58,29.45,29.02,13,8,20,0.00
2013-4-10,14,9,5,7,3,0,86,75,57,29.90,29.45,15,9,20,0.00
2013-4-11,19,13,8,9,3,0,82,65,45,30.04,29.90,14,7,18,0.00
2013-4-12,23,16,7,6,2,-3,71,54,37,30.07,30.00,14,9,20,0.00
2013-4-13,28,20,12,8,4,0,64,50,36,30.35,30.07,12,8,20,0.00
2013-4-14,36,27,18,17,8,2,70,46,32,30.45,30.35,10,5,15,0.00
2013-4-15,34,29,23,20,15,10,77,55,42,30.37,30.19,10,5,15,0.00
2013-4-16,31,26,20,14,10,6,67,51,37,30.19,30.02,12,7,19,0.00
2013-4-17,30,24,17,11,7,3,66,49,39,30.09,30.02,12,7,19,0.00
2013-4-18,36,28,21,17,13,6,68,52,39,30.10,30.03,12,5,15,0.00
2013-4-19,40,31,21,18,14,10,62,49,38,30.26,30.07,9,4,13,0.00
2013-4-20,40,34,27,21,17,12,65,50,35,30.32,30.26,8,3,13,0.00
2013-4-21,33,31,26,29,25,21,92,80,62,30.30,30.17,15,6,23,0.01
2013-4-22,43,35,24,29,26,22,95,71,48,30.41,30.29,11,4,18,0.01
2013-4-23,39,36,33,36,32,27,96,88,62,30.36,30.25,13,4,23,0.23
2013-4-24,40,34,31,35,32,30,97,91,80,30.27,29.76,7,2,15,0.00
2013-4-25,37,33,27,30,14,7,90,48,32,29.77,29.58,23,15,35,0.00
2013-4-26,36,29,21,19,10,5,52,44,32,29.67,29.41,13,6,23,0.00
2013-4-27,36,31,25,16,13,9,64,49,36,29.83,29.43,16,9,24,0.00
2013-4-28,36,30,25,18,10,1,58,42,33,30.09,29.83,13,8,19,0.00
2013-4-29,39,33,27,24,16,12,77,51,40,30.10,30.03,8,3,12,0.00
2013-4-30,41,34,30,27,23,18,76,62,51,30.03,29.68,6,2,11,0.00
2013-5-1,39,35,32,28,25,22,75,67,57,29.68,29.45,11,6,15,0.00
2013-5-2,41,36,32,36,32,26,95,86,72,29.77,29.56,6,2,9,0.15
2013-5-3,39,36,32,35,31,25,95,84,69,29.84,29.70,8,3,13,0.08
2013-5-4,35,32,28,33,29,26,95,88,71,29.88,29.67,8,3,13,0.20
2013-5-5,40,34,28,31,27,22,88,77,62,30.09,29.88,7,3,13,0.00
2013-5-6,39,34,29,28,24,21,83,67,52,30.18,30.08,12,4,14,0.00
2013-5-7,42,35,31,30,26,21,79,68,52,30.20,30.17,7,3,12,0.00
2013-5-8,48,39,31,31,28,25,81,66,48,30.20,30.13,9,3,16,0.00
2013-5-9,48,40,35,34,30,27,79,67,49,30.20,30.14,8,3,11,0.00
2013-5-10,54,44,36,35,31,23,86,61,34,30.15,29.86,8,2,12,0.00
2013-5-11,44,40,37,41,36,32,94,85,72,29.87,29.49,7,2,10,0.07
2013-5-12,48,42,38,43,39,36,96,88,75,29.49,29.41,6,1,8,0.09
2013-5-13,46,40,35,40,36,30,95,87,53,29.41,29.32,8,3,16,0.03
2013-5-14,41,36,31,34,28,20,96,75,44,29.59,29.38,13,4,18,0.08
2013-5-15,42,36,30,30,24,15,84,64,39,29.67,29.59,10,3,14,0.00
2013-5-16,41,37,33,33,30,27,94,77,66,29.61,29.35,14,6,25,0.14
2013-5-17,38,33,30,35,30,26,96,90,72,29.45,29.32,12,3,16,0.31
2013-5-18,32,30,26,27,22,14,95,73,49,30.10,29.45,13,6,17,0.00
2013-5-19,42,34,28,27,15,9,70,46,32,30.54,30.10,10,5,14,0.01
2013-5-20,43,37,30,30,25,17,79,61,43,30.57,30.48,9,3,14,0.00
2013-5-21,46,41,36,33,31,28,81,68,54,30.49,30.18,9,3,13,0.00
2013-5-22,47,42,38,42,36,31,92,80,68,30.19,30.05,6,2,9,0.03
2013-5-23,49,43,38,42,39,37,96,88,75,30.07,30.03,6,2,9,0.00
2013-5-24,55,48,40,42,38,35,91,71,53,30.04,29.92,10,4,15,0.00
2013-5-25,56,50,43,38,36,33,74,58,44,29.93,29.82,9,3,12,0.00
2013-5-26,53,44,38,41,36,33,87,74,51,29.84,29.78,6,2,10,0.00
2013-5-27,54,47,40,41,38,37,93,73,60,29.80,29.71,9,4,12,0.00
2013-5-28,72,55,35,45,40,33,95,62,30,29.72,29.58,8,3,14,0.00
2013-5-29,64,60,54,43,39,35,55,46,40,29.67,29.57,8,3,12,0.00
2013-5-30,59,54,46,44,40,35,78,59,49,29.94,29.67,7,3,10,0.00
2013-5-31,52,47,43,45,42,39,95,83,70,30.08,29.93,9,3,12,0.00
2013-6-1,48,44,41,44,42,40,97,94,83,30.14,30.08,7,2,8,0.05
2013-6-2,52,45,40,41,38,36,94,75,58,30.16,29.98,10,4,15,0.00
2013-6-3,48,45,42,37,35,34,77,68,59,29.98,29.64,11,4,19,0.00
2013-6-4,49,44,41,41,37,34,90,79,69,29.66,29.58,9,3,14,0.05
2013-6-5,53,50,43,36,34,32,66,56,49,29.89,29.85,8,5,16,0.00
2013-6-6,56,48,41,40,34,31,88,61,40,29.85,29.66,9,4,15,0.00
2013-6-7,63,53,41,41,36,33,86,54,38,29.86,29.66,10,4,16,0.00
2013-6-8,64,56,48,46,39,33,61,52,45,30.06,29.86,9,4,12,0.00
2013-6-9,65,58,52,44,41,38,66,54,42,30.15,30.06,8,4,13,0.00
2013-6-10,59,55,49,46,42,39,75,62,50,30.16,30.07,10,4,15,0.00
2013-6-11,64,58,53,46,42,38,65,55,41,30.07,29.93,11,4,16,0.00
2013-6-12,64,59,52,45,41,38,66,52,44,29.94,29.89,8,3,12,0.00
2013-6-13,59,54,48,47,43,38,83,68,54,30.11,29.91,9,3,13,0.00
2013-6-14,63,55,44,48,44,40,91,67,45,30.20,30.10,9,3,12,0.00
2013-6-15,65,59,53,50,46,41,72,63,53,30.22,30.16,6,3,8,0.00
2013-6-16,70,63,56,49,46,42,69,53,43,30.16,30.06,6,2,9,0.00
2013-6-17,73,66,60,51,46,41,58,47,35,30.06,29.80,6,3,8,0.00
2013-6-18,69,66,56,52,45,39,59,48,39,29.82,29.71,11,4,15,0.00
2013-6-19,56,51,46,47,44,40,91,77,58,29.92,29.75,16,4,22,0.18
2013-6-20,56,51,45,48,44,40,90,78,65,29.95,29.90,9,4,12,0.00
2013-6-21,52,47,40,43,40,37,95,77,60,30.02,29.95,10,4,12,0.00
2013-6-22,53,48,43,41,39,37,83,71,58,29.98,29.69,14,3,20,0.00
2013-6-23,54,51,47,44,42,40,79,72,65,29.69,29.57,9,3,14,0.00
2013-6-24,60,52,45,50,46,42,96,81,61,29.61,29.57,8,2,11,0.02
2013-6-25,67,60,50,53,48,42,88,66,52,29.58,29.53,6,2,8,0.00
2013-6-26,72,64,57,54,51,46,84,63,46,29.80,29.52,7,3,9,0.04
2013-6-27,61,54,47,54,50,45,96,85,75,30.01,29.80,8,2,11,0.00
2013-6-28,59,54,52,52,50,47,91,84,76,30.09,30.01,7,2,10,0.01
2013-6-29,59,53,50,52,48,44,93,84,71,30.06,29.94,9,3,11,0.00
2013-6-30,57,52,48,50,47,42,91,82,72,29.97,29.76,13,3,19,0.00
2013-7-1,52,48,45,45,42,39,89,79,70,29.76,29.46,15,4,20,0.03
2013-7-2,53,48,43,44,42,40,96,81,66,29.82,29.49,8,3,10,0.00
2013-7-3,56,49,46,45,42,40,87,76,61,29.94,29.82,7,3,10,0.00
2013-7-4,53,48,44,46,43,40,92,82,71,29.99,29.89,7,3,10,0.11
2013-7-5,53,48,45,47,44,42,91,84,72,30.00,29.92,5,2,8,0.14
2013-7-6,56,51,46,47,44,42,89,78,65,29.94,29.63,7,3,14,0.01
2013-7-7,53,47,43,49,45,42,96,92,81,29.63,29.51,10,3,16,0.15
2013-7-8,53,48,42,48,44,41,96,88,78,29.79,29.61,12,4,17,0.00
2013-7-9,57,51,44,49,44,40,89,78,59,30.00,29.79,10,4,14,0.00
2013-7-10,64,56,48,50,47,44,90,72,54,30.00,29.88,9,4,13,0.00
2013-7-11,71,61,53,52,46,42,68,58,41,29.88,29.83,10,3,13,0.00
2013-7-12,71,62,54,53,48,45,74,61,48,29.90,29.86,8,3,13,0.00
2013-7-13,66,61,52,52,47,41,82,62,53,30.10,29.89,9,3,11,0.00
2013-7-14,62,55,49,52,48,44,86,77,65,30.24,30.10,9,4,14,0.00
2013-7-15,62,54,48,53,48,44,90,81,67,30.26,30.17,10,3,13,0.00
2013-7-16,61,56,51,54,50,47,91,82,73,30.17,30.10,11,4,16,0.00
2013-7-17,66,58,52,58,54,50,93,86,74,30.11,30.03,13,5,19,0.00
2013-7-18,67,60,55,59,56,53,94,84,73,30.13,30.06,9,5,14,0.00
2013-7-19,58,54,50,54,50,48,96,87,74,30.17,30.11,11,6,19,0.00
2013-7-20,63,53,48,53,49,43,96,85,53,30.12,30.01,10,5,14,0.00
2013-7-21,67,59,48,50,45,41,87,60,43,30.02,29.89,16,7,26,0.00
2013-7-22,70,63,56,51,46,42,63,55,45,30.03,29.93,11,5,17,0.00
2013-7-23,70,65,60,54,48,41,70,54,43,30.04,29.97,6,2,17,0.00
2013-7-24,72,63,58,54,52,49,78,66,47,29.97,29.91,7,2,9,0.00
2013-7-28,68,59,52,59,55,51,97,86,72,30.24,30.11,6,2,0,0.00
2013-7-29,67,61,54,57,55,51,94,81,70,30.12,30.08,6,4,0,0.00
2013-7-30,64,60,53,57,54,50,92,80,73,30.14,30.10,7,4,0,0.00
2013-7-31,66,60,53,56,53,50,90,78,68,30.13,30.05,7,4,0,0.00
2013-8-1,63,56,51,53,50,47,93,81,65,30.05,29.90,6,3,0,0.00
2013-8-2,62,56,52,51,49,47,89,77,63,29.92,29.59,12,5,0,0.02
2013-8-3,58,56,53,50,47,46,82,73,66,29.81,29.57,12,6,21,0.01
2013-8-4,60,54,50,52,48,46,95,82,66,29.89,29.81,7,2,9,0.02
2013-8-5,58,53,50,51,48,46,94,83,69,29.89,29.83,8,3,12,0.08
2013-8-6,58,55,52,52,49,46,84,80,72,29.84,29.73,14,6,20,0.00
2013-8-7,57,55,52,49,48,46,85,76,70,29.74,29.59,14,6,21,0.00
2013-8-8,54,51,48,48,45,41,94,81,63,29.73,29.60,10,4,20,0.05
2013-8-9,59,53,48,51,47,43,96,81,67,29.68,29.54,16,4,27,0.04
2013-8-10,59,52,44,49,47,43,96,84,64,29.93,29.67,8,3,22,0.00
2013-8-11,52,50,46,52,48,44,97,93,82,29.94,29.87,9,2,12,0.77
2013-8-12,61,55,52,55,52,49,93,88,78,29.95,29.89,8,4,10,0.22
2013-8-13,56,54,49,53,51,46,93,88,77,29.94,29.90,7,2,9,0.00
2013-8-14,58,51,46,48,46,43,94,83,67,29.95,29.83,7,3,11,0.00
2013-8-15,59,54,48,52,48,45,92,83,72,29.83,29.68,8,3,11,0.00
2013-8-16,53,50,45,51,47,44,95,89,82,29.69,29.50,8,3,14,0.12
2013-8-17,61,56,52,54,49,46,87,79,71,29.50,29.41,9,5,14,0.00
2013-8-18,58,54,51,54,51,48,93,88,80,29.58,29.40,4,1,14,0.03
2013-8-19,54,52,49,51,49,46,95,88,81,29.68,29.58,4,2,6,0.25
2013-8-20,57,50,46,52,48,45,97,90,76,29.81,29.68,7,3,10,0.01
2013-8-21,52,50,48,50,48,45,97,92,81,29.81,29.68,5,2,7,0.46
2013-8-22,53,51,49,51,50,48,98,97,93,29.69,29.64,5,2,8,0.21
2013-8-23,56,52,47,51,48,44,98,90,79,29.65,29.48,11,5,17,0.00
2013-8-24,62,54,47,49,44,39,90,69,44,29.65,29.50,14,6,19,0.00
2013-8-25,64,55,48,47,40,34,72,57,37,29.66,29.60,7,3,9,0.00
2013-8-27,52,51,50,46,46,46,85,83,80,29.70,29.70,8,6,11,0.00
2013-8-28,56,50,46,49,46,42,92,84,70,29.70,29.41,9,2,13,0.16
2013-8-29,54,51,48,49,47,44,94,88,73,29.77,29.38,10,6,21,0.36
2013-8-30,57,52,48,53,49,46,97,90,74,29.90,29.77,6,3,9,0.01
2013-8-31,57,52,47,48,46,42,89,81,62,29.89,29.76,8,3,11,0.02
2013-9-1,57,52,47,50,46,42,86,80,74,29.78,29.63,6,2,8,0.00
2013-9-2,57,52,48,49,44,38,91,75,52,29.64,29.40,20,7,32,0.28
2013-9-3,58,53,49,48,44,42,83,73,62,29.43,29.20,22,6,48,0.00
2013-9-4,53,48,44,46,44,38,91,83,73,29.74,29.31,12,4,30,0.05
2013-9-5,54,49,43,42,40,38,84,72,60,29.93,29.73,14,4,19,0.00
2013-9-6,57,50,45,50,44,37,89,80,66,29.89,29.24,20,8,28,0.17
2013-9-7,51,48,46,50,47,44,98,96,86,29.57,29.27,13,3,18,0.29
2013-9-8,56,49,45,46,43,38,98,82,54,29.73,29.45,17,7,24,0.00
2013-9-9,55,51,48,50,46,41,94,83,71,29.71,29.50,19,6,31,0.25
2013-9-10,59,52,49,51,48,47,94,88,67,29.65,29.57,8,3,24,0.06
2013-9-11,53,49,46,48,45,41,97,88,69,29.82,29.53,12,4,18,0.28
2013-9-12,50,48,44,43,41,38,84,78,74,29.90,29.76,14,5,21,0.00
2013-9-13,56,51,48,50,45,41,97,81,63,29.81,29.72,16,5,22,0.08
2013-9-14,54,48,43,49,45,41,97,90,77,29.81,29.78,6,2,20,0.00
2013-9-15,58,51,44,45,41,35,88,70,55,29.81,29.66,9,3,13,0.00
2013-9-16,50,45,40,45,40,37,96,84,72,29.67,29.44,7,3,12,0.00
2013-9-17,48,44,41,43,40,37,94,85,77,29.47,29.39,5,1,7,0.00
2013-9-18,46,42,40,42,39,35,97,87,70,29.56,29.47,7,3,13,0.00
2013-9-19,48,40,35,37,33,27,91,76,52,29.53,29.35,11,4,15,0.00
2013-9-20,45,38,32,29,24,18,80,58,43,29.35,28.91,11,5,15,0.00
2013-9-21,42,38,36,37,30,18,93,74,45,28.91,28.84,12,5,15,0.09
2013-9-22,42,37,33,35,28,22,91,70,49,29.24,28.88,14,6,21,0.00
2013-9-23,43,36,31,26,22,18,75,57,37,29.68,29.24,13,7,21,0.00
2013-9-24,45,39,31,39,29,20,91,68,52,29.86,29.68,8,3,13,0.15
2013-9-25,49,45,39,42,39,36,91,80,63,29.72,29.33,30,6,44,0.30
2013-9-26,48,44,41,44,41,38,96,90,83,29.55,29.09,8,3,44,0.03
2013-9-27,47,44,40,39,37,35,88,77,68,29.09,28.75,19,9,32,0.00
2013-9-28,49,44,41,40,35,33,81,71,54,29.10,29.01,12,5,22,0.00
2013-9-29,44,41,38,37,32,28,84,71,57,29.31,29.09,12,7,20,0.00
2013-9-30,45,40,36,33,30,27,83,68,51,29.57,29.31,13,8,19,0.00
2013-10-1,46,39,32,32,28,26,78,67,56,29.71,29.57,10,4,15,0.00
2013-10-2,46,40,33,37,32,29,94,74,58,29.75,29.65,10,3,12,0.00
2013-10-3,46,43,39,38,35,30,79,73,68,29.65,29.23,25,12,38,0.00
2013-10-4,50,43,38,44,38,33,96,81,68,29.70,29.36,6,3,15,0.00
2013-10-5,46,39,34,40,35,32,96,87,73,29.73,29.62,9,3,12,0.00
2013-10-6,42,39,36,40,35,32,96,87,74,29.70,29.64,14,5,19,0.05
2013-10-7,48,42,37,39,37,34,94,85,70,29.78,29.56,8,3,15,0.07
2013-10-8,50,44,37,44,38,33,95,83,63,29.56,29.05,20,9,40,0.60
2013-10-9,43,39,36,36,31,26,88,73,52,29.69,29.07,23,13,31,0.00
2013-10-10,42,39,36,39,36,32,93,88,81,29.68,29.58,6,3,14,0.18
2013-10-11,48,43,40,41,38,36,95,83,71,29.78,29.61,10,3,16,0.12
2013-10-12,47,45,42,39,37,34,81,73,66,29.74,29.43,23,9,38,0.03
2013-10-13,46,43,39,41,38,33,93,82,61,29.60,29.35,16,4,23,0.25
2013-10-14,44,42,38,38,36,34,85,79,71,29.98,29.60,7,2,14,0.00
2013-10-15,50,46,41,44,40,35,88,79,70,30.08,29.90,13,4,21,0.02
2013-10-16,50,46,41,42,38,35,88,73,66,30.14,30.02,18,7,25,0.13
2013-10-17,49,46,44,38,36,33,75,68,59,30.03,29.59,21,10,28,0.01
2013-10-18,49,45,39,40,36,33,93,73,61,29.71,29.42,26,9,42,0.04
2013-10-19,45,43,41,39,36,32,85,74,68,29.60,29.27,24,6,32,0.00
2013-10-20,46,40,36,37,34,29,84,77,62,29.86,29.60,10,2,24,0.00
2013-10-21,43,38,35,34,32,29,87,79,63,29.95,29.86,9,3,19,0.00
2013-10-22,44,37,33,35,32,27,93,81,54,30.11,29.94,13,4,18,0.00
2013-10-23,38,32,27,30,26,19,95,81,58,29.95,29.66,7,2,11,0.00
2013-10-24,43,39,32,37,31,16,91,75,44,29.72,29.46,26,7,48,0.12
2013-10-25,45,39,36,34,32,30,83,75,60,30.10,29.61,8,3,14,0.00
2013-10-26,49,41,36,37,30,20,89,66,36,30.31,30.10,14,3,25,0.00
2013-11-2,41,40,40,31,31,31,72,70,68,29.68,29.66,10,4,15,0.00
2013-11-3,45,43,40,35,33,31,74,70,65,29.70,29.37,14,5,24,0.00
2013-11-4,43,39,34,35,32,26,90,78,69,29.37,29.18,10,4,17,0.00
2013-11-5,41,36,30,32,27,20,79,70,59,29.90,29.30,8,3,12,0.00
2013-11-6,34,30,24,26,18,10,73,62,37,29.98,29.80,10,4,13,0.00
2013-11-7,37,34,27,28,26,22,84,73,66,29.80,29.60,8,3,13,0.00
2013-11-8,36,30,26,26,24,21,91,80,59,30.15,29.78,6,2,9,0.00
2013-11-9,42,38,30,37,34,23,94,86,70,30.15,29.98,12,4,15,0.00
2013-11-10,40,37,30,38,35,28,95,93,88,29.98,29.65,11,3,16,0.52
2013-11-11,30,27,21,28,20,11,93,75,59,30.01,29.76,17,8,24,0.00
2013-11-12,27,21,15,15,8,3,76,59,41,30.07,30.00,8,3,11,0.00
2013-11-13,39,32,23,37,26,5,96,82,42,30.16,30.03,9,4,15,0.00
2013-11-14,41,38,32,38,34,22,97,86,64,30.11,29.82,17,6,25,0.00
2013-11-15,34,31,23,26,21,16,80,67,58,29.95,29.84,10,4,18,0.00
2013-11-16,26,22,18,16,9,3,73,58,47,30.16,29.91,11,7,19,0.00
2013-11-17,18,14,9,6,2,-1,74,60,51,30.16,30.13,12,6,22,0.00
2013-11-18,14,10,6,0,-2,-4,71,60,48,30.15,30.09,10,5,15,0.00
2013-11-19,15,9,6,8,-3,-6,76,58,45,30.10,29.90,8,3,13,0.00
2013-11-20,15,10,7,11,2,-3,88,71,54,29.92,29.78,16,6,25,0.00
2013-11-21,42,20,7,36,15,0,93,80,66,29.78,29.01,16,5,20,0.09
2013-11-22,43,34,21,37,30,16,96,88,77,29.41,29.00,14,4,19,0.00
2013-11-23,32,26,18,28,21,15,94,83,69,29.91,29.41,8,2,16,0.00
2013-11-24,35,33,30,31,29,27,93,86,80,29.94,29.85,6,3,8,0.00
2013-11-25,34,31,27,28,26,24,95,82,66,29.86,29.63,8,2,12,0.00
2013-11-26,32,29,27,29,27,26,96,94,90,29.80,29.71,4,1,9,0.00
2013-11-27,30,26,20,28,24,14,96,93,79,29.80,29.61,12,2,14,0.00
2013-11-28,20,13,7,16,4,-5,87,67,56,29.92,29.61,12,6,19,0.00
2013-11-29,11,8,4,1,-4,-7,67,58,52,30.08,29.92,9,6,14,0.00
2013-11-30,12,7,2,0,-4,-7,73,60,48,30.33,30.08,16,4,19,0.00
2013-12-1,26,18,9,7,0,-4,59,45,33,30.48,30.33,12,2,18,0.00
2013-12-2,41,32,22,11,3,-1,49,29,20,30.63,30.46,8,2,10,0.00
2013-12-3,32,28,25,25,18,4,84,69,32,30.63,30.45,9,3,10,0.00
2013-12-4,34,32,28,32,28,23,95,83,75,30.45,30.30,6,2,8,0.03
2013-12-5,40,37,33,37,35,32,96,93,87,30.41,30.27,6,2,8,0.16
2013-12-6,44,41,38,38,37,35,89,84,79,30.44,30.39,6,3,9,0.00
2013-12-7,40,34,28,37,33,27,97,95,87,30.41,30.35,6,2,9,0.00
2013-12-8,43,28,25,42,26,24,98,96,89,30.40,30.34,6,3,9,0.00